Home > Weather > Pasadena > Past weeks

Flag for USA Past Weather in Pasadena, Texas, USA — Yesterday and Last 2 Weeks

Now
81 °F

Scattered showers. Broken clouds.


Feels Like: 86 °F
Forecast: 79 / 93 °F
Wind: 6 mph from South

Location: Houston / Ellington

Current Time: Jul 29, 2016 at 4:51:18 PM

Latest Report: Jul 29, 2016 at 3:50 PM


Visibility: 7 mi

Pressure: 29.97 "Hg

Humidity: 84%

Dew Point: 75 °F

Location of PasadenaLocation

Past Weather in Pasadena — Graph

°F

Pasadena Temperature Yesterday

Maximum temperature yesterday: 90 °F (at 2:50 PM)
Minimum temperature yesterday: 82 °F (at 12:50 AM)
Average temperature yesterday: 84 °F

High & Low Weather Summary for the Past Weeks

 TemperatureHumidityPressure
High97 °F (Jul 15, 1:50 PM)100% (Jul 25, 5:50 PM)30.20 "Hg (Jul 25, 5:50 PM)
Low77 °F (Jul 25, 3:50 PM)36% (Jul 21, 3:50 PM)29.86 "Hg (Jul 25, 2:50 PM)
Average86 °F71%30.03 "Hg
* Reported Jul 14 3:50 PM — Jul 29 3:50 PM, Pasadena, Weather by CustomWeather, © 2016

Note: Actual official high and low records may vary slightly from our data, if they occured in-between our weather recording intervals... More about our weather records

Advertising

Pasadena Weather History for the Previous 24 Hours

Scroll right to see more
 ConditionsComfort  
Time TempWeatherWind HumidityBarometerVisibility
3:50 PM
Fri, Jul 29
81 °FScattered showers. Broken clouds.6 mph84%29.97 "Hg7 mi
2:50 PM88 °FThunderstorms. Partly sunny.7 mph66%29.99 "Hg5 mi
1:50 PM90 °FRain. Partly sunny.18 mph63%30.00 "Hg5 mi
12:50 PM93 °FScattered clouds.5 mph56%30.02 "Hg10 mi
11:50 AM90 °FScattered clouds.7 mph63%30.04 "Hg10 mi
10:50 AM90 °FScattered clouds.5 mph63%30.03 "Hg10 mi
9:50 AM86 °FScattered clouds.6 mph70%30.03 "Hg10 mi
8:50 AM82 °FScattered clouds.3 mph79%30.04 "Hg10 mi
7:50 AM81 °FBroken clouds.No wind84%30.01 "Hg10 mi
6:50 AM79 °FPassing clouds.No wind89%30.00 "Hg10 mi
5:50 AM81 °FPassing clouds.No wind84%30.00 "Hg10 mi
4:50 AM81 °FPassing clouds.No wind84%30.00 "Hg10 mi
3:50 AM81 °FPassing clouds.No wind84%30.00 "Hg10 mi
2:50 AM81 °FPassing clouds.No wind84%30.00 "Hg10 mi
1:50 AM81 °FPassing clouds.3 mph84%30.00 "Hg10 mi
12:50 AM82 °FPassing clouds.5 mph84%30.00 "Hg10 mi
11:50 PM
Thu, Jul 28
82 °FPassing clouds.3 mph84%30.00 "Hg10 mi
9:50 PM84 °FPartly cloudy.No wind74%30.00 "Hg10 mi
5:50 PM90 °FPartly sunny.No wind55%29.98 "Hg10 mi
Weather by CustomWeather, © 2016

See weather overviewHow to use our weather pages